Ludington, MI

10:37 PM EDT on October 18, 2019 (GMT -0400)
Mason County

Weather History for KLDM - August, 2019

Change the Weather History Date:

Thursday, August 8, 2019

  Actual Average Record
Temperature  
Mean Temperature 66 °F -  
Max Temperature 73 °F 80 °F 91 °F (2001)
Min Temperature 60 °F 59 °F 44 °F (1976)
Cooling Degree Days 2    
Growing Degree Days 16 (Base 50)    
Moisture  
Dew Point 60 °F    
Average Humidity 75    
Maximum Humidity 96    
Minimum Humidity 48    
Precipitation  
Precipitation 0.04 in - - ()
Sea Level Pressure  
Sea Level Pressure 29.79 in    
Wind  
Wind Speed 6 mph (NW)    
Max Wind Speed 13 mph    
Max Gust Speed 23 mph    
Visibility 10 miles    
Events Rain    
Averages and records for this station are not official NWS values.
T = Trace of Precipitation, MM = Missing Value Source: NWS Daily Summary

Daily Weather History Graph

Daily Weather History Graph

Search for Another Location

Airport or City:

Astronomy

Aug. 08, 2019 Rise Set
Actual Time 6:41 AM EDT 9:00 PM EDT
Civil Twilight 6:09 AM EDT 9:32 PM EDT
Nautical Twilight 5:29 AM EDT 10:12 PM EDT
Astronomical Twilight 4:44 AM EDT 10:56 PM EDT
Moon 3:36 PM EDT (8/8) 1:04 AM EDT (8/8)
Length of Visible Light 15h 23m
Length of Day
14h 19m
First Quarter, 60% of the Moon is Illuminated
Aug 8
First Quarter
Aug 15
Full
Aug 23
Last Quarter
Aug 30
New
Sep 5
First Quarter

Hourly Weather History & Observations

Time (EDT) Temp. Dew Point Humidity Pressure Visibility Wind Dir Wind Speed Gust Speed Precip Events Conditions
12:18 AM 65.3 °F 64.0 °F 96% 29.70 in 10.0 mi SSE 8.1 mph - 0.03 in Rain Light Rain
12:36 AM 65.3 °F 63.5 °F 94% 29.72 in 10.0 mi WSW 4.6 mph - 0.03 in   Scattered Clouds
12:55 AM 64.9 °F 63.7 °F 96% 29.73 in 10.0 mi Calm Calm - 0.04 in   Clear
12:56 AM 64.9 °F 63.7 °F 96% 29.73 in 10.0 mi Calm Calm - 0.04 in   Clear
1:15 AM 65.3 °F 63.5 °F 94% 29.74 in 10.0 mi SW 5.8 mph - N/A   Clear
1:39 AM 66.2 °F 64.9 °F 96% 29.74 in 10.0 mi SW 9.2 mph - N/A   Mostly Cloudy
1:57 AM 67.1 °F 65.3 °F 94% 29.74 in 10.0 mi SW 11.5 mph - N/A   Overcast
2:15 AM 67.1 °F 65.1 °F 93% 29.74 in 10.0 mi WSW 9.2 mph 18.4 mph N/A   Overcast
2:16 AM 67.1 °F 65.3 °F 94% 29.74 in 10.0 mi WSW 10.4 mph 18.4 mph N/A   Overcast
2:36 AM 67.1 °F 64.8 °F 92% 29.73 in 10.0 mi WSW 9.2 mph 19.6 mph N/A   Overcast
2:55 AM 67.3 °F 65.3 °F 93% 29.72 in 10.0 mi WSW 10.4 mph - N/A   Overcast
3:18 AM 68.0 °F 66.0 °F 93% 29.71 in 10.0 mi West 10.4 mph - N/A   Overcast
3:36 AM 68.4 °F 66.4 °F 93% 29.71 in 10.0 mi West 8.1 mph - N/A   Overcast
3:55 AM 68.4 °F 66.2 °F 93% 29.71 in 10.0 mi West 5.8 mph - N/A   Overcast
3:56 AM 68.4 °F 66.2 °F 93% 29.71 in 10.0 mi West 5.8 mph - N/A   Overcast
4:15 AM 68.0 °F 66.2 °F 94% 29.72 in 10.0 mi West 5.8 mph - N/A   Overcast
4:39 AM 68.0 °F 66.2 °F 94% 29.72 in 10.0 mi WNW 5.8 mph - N/A   Overcast
4:57 AM 68.0 °F 66.2 °F 94% 29.72 in 10.0 mi WNW 5.8 mph - N/A   Overcast
5:15 AM 68.0 °F 66.2 °F 94% 29.72 in 10.0 mi NW 5.8 mph - N/A   Overcast
5:16 AM 68.0 °F 66.2 °F 94% 29.72 in 10.0 mi WNW 4.6 mph - N/A   Overcast
5:35 AM 67.6 °F 66.2 °F 95% 29.72 in 10.0 mi NW 5.8 mph - N/A   Overcast
5:36 AM 67.6 °F 66.2 °F 95% 29.72 in 10.0 mi WNW 6.9 mph - N/A   Overcast
5:55 AM 68.0 °F 66.2 °F 94% 29.72 in 10.0 mi NW 8.1 mph - N/A   Overcast
6:18 AM 67.3 °F 65.7 °F 95% 29.73 in 10.0 mi NW 4.6 mph - N/A   Overcast
6:36 AM 67.1 °F 65.7 °F 95% 29.73 in 10.0 mi NW 4.6 mph - N/A   Overcast
6:55 AM 67.1 °F 65.3 °F 94% 29.73 in 10.0 mi NW 6.9 mph - N/A   Mostly Cloudy
6:56 AM 67.1 °F 65.3 °F 94% 29.73 in 10.0 mi NNW 6.9 mph - N/A   Mostly Cloudy
7:15 AM 66.4 °F 64.4 °F 93% 29.74 in 10.0 mi NNW 6.9 mph - N/A   Scattered Clouds
7:16 AM 66.4 °F 64.4 °F 93% 29.74 in 10.0 mi NW 6.9 mph - N/A   Scattered Clouds
7:39 AM 66.6 °F 64.0 °F 92% 29.74 in 10.0 mi NW 8.1 mph - N/A   Scattered Clouds
7:57 AM 66.9 °F 63.7 °F 89% 29.75 in 10.0 mi NNW 10.4 mph - N/A   Mostly Cloudy
8:15 AM 67.8 °F 63.5 °F 86% 29.76 in 10.0 mi NNW 12.7 mph 23.0 mph N/A   Mostly Cloudy
8:35 AM 68.9 °F 64.4 °F 86% 29.76 in 10.0 mi NNW 6.9 mph 19.6 mph N/A   Mostly Cloudy
8:55 AM 69.1 °F 64.2 °F 84% 29.76 in 10.0 mi NNW 11.5 mph 17.3 mph N/A   Scattered Clouds
9:18 AM 69.8 °F 64.2 °F 82% 29.77 in 10.0 mi NNW 5.8 mph - N/A   Scattered Clouds
9:36 AM 70.0 °F 64.0 °F 81% 29.78 in 10.0 mi NW 6.9 mph - N/A   Scattered Clouds
9:55 AM 70.7 °F 63.3 °F 77% 29.78 in 10.0 mi NNW 8.1 mph - N/A   Scattered Clouds
10:15 AM 70.9 °F 62.8 °F 75% 29.78 in 10.0 mi NNW 9.2 mph - N/A   Scattered Clouds
10:39 AM 71.2 °F 61.2 °F 70% 29.79 in 10.0 mi NNW 9.2 mph 18.4 mph N/A   Scattered Clouds
10:57 AM 71.4 °F 61.2 °F 70% 29.79 in 10.0 mi NW 10.4 mph 16.1 mph N/A   Clear
11:16 AM 72.3 °F 61.2 °F 68% 29.79 in 10.0 mi North 8.1 mph - N/A   Clear
11:35 AM 72.0 °F 58.6 °F 63% 29.80 in 10.0 mi NW 9.2 mph - N/A   Clear
11:55 AM 72.3 °F 58.3 °F 61% 29.81 in 10.0 mi NNW 9.2 mph 19.6 mph N/A   Scattered Clouds
12:18 PM 72.5 °F 58.1 °F 60% 29.82 in 10.0 mi NNW 9.2 mph - N/A   Mostly Cloudy
12:35 PM 72.5 °F 56.8 °F 58% 29.82 in 10.0 mi NNW 9.2 mph - N/A   Mostly Cloudy
12:55 PM 73.0 °F 57.9 °F 59% 29.82 in 10.0 mi WNW 6.9 mph - N/A   Mostly Cloudy
1:15 PM 72.7 °F 59.4 °F 63% 29.82 in 10.0 mi WNW 8.1 mph - N/A   Scattered Clouds
1:38 PM 72.1 °F 58.3 °F 62% 29.83 in 10.0 mi WNW 10.4 mph 17.3 mph N/A   Scattered Clouds
1:56 PM 72.0 °F 57.2 °F 60% 29.83 in 10.0 mi WNW 8.1 mph - N/A   Scattered Clouds
2:15 PM 72.5 °F 57.6 °F 59% 29.83 in 10.0 mi WNW 8.1 mph 19.6 mph N/A   Clear
2:35 PM 73.2 °F 56.1 °F 55% 29.83 in 10.0 mi NNW 11.5 mph 19.6 mph N/A   Clear
2:59 PM 73.2 °F 55.0 °F 53% 29.83 in 10.0 mi WNW 6.9 mph - N/A   Scattered Clouds
3:17 PM 73.8 °F 56.3 °F 54% 29.83 in 10.0 mi NW 9.2 mph 23.0 mph N/A   Mostly Cloudy
3:35 PM 72.9 °F 54.9 °F 53% 29.84 in 10.0 mi North 9.2 mph 17.3 mph N/A   Mostly Cloudy
3:36 PM 73.0 °F 54.9 °F 53% 29.84 in 10.0 mi North 9.2 mph 17.3 mph N/A   Mostly Cloudy
3:55 PM 73.4 °F 52.5 °F 48% 29.84 in 10.0 mi North 10.4 mph 17.3 mph N/A   Mostly Cloudy
4:15 PM 73.0 °F 52.5 °F 48% 29.84 in 10.0 mi North 10.4 mph - N/A   Scattered Clouds
4:38 PM 73.4 °F 53.4 °F 49% 29.84 in 10.0 mi North 6.9 mph 17.3 mph N/A   Scattered Clouds
4:55 PM 73.4 °F 53.4 °F 49% 29.84 in 10.0 mi NNW 8.1 mph - N/A   Clear
5:15 PM 72.9 °F 52.2 °F 48% 29.84 in 10.0 mi NNW 6.9 mph - N/A   Clear
5:16 PM 72.9 °F 52.5 °F 49% 29.84 in 10.0 mi North 6.9 mph - N/A   Clear
5:35 PM 73.6 °F 54.3 °F 51% 29.85 in 10.0 mi NNW 6.9 mph - N/A   Clear
5:59 PM 73.0 °F 53.6 °F 50% 29.85 in 10.0 mi North 6.9 mph - N/A   Clear
6:16 PM 72.5 °F 54.0 °F 52% 29.84 in 10.0 mi NW 5.8 mph - N/A   Clear
6:35 PM 72.5 °F 53.8 °F 52% 29.84 in 10.0 mi NW 5.8 mph - N/A   Clear
6:36 PM 72.5 °F 54.0 °F 52% 29.84 in 10.0 mi NW 5.8 mph - N/A   Clear
6:55 PM 72.1 °F 53.1 °F 51% 29.84 in 10.0 mi West 5.8 mph - N/A   Clear
6:56 PM 72.1 °F 52.9 °F 51% 29.84 in 10.0 mi West 5.8 mph - N/A   Clear
7:15 PM 71.6 °F 53.2 °F 52% 29.84 in 10.0 mi Calm Calm - N/A   Clear
7:20 PM 71.8 °F 54.0 °F 53% 29.84 in 10.0 mi West 4.6 mph - N/A   Clear
7:38 PM 71.4 °F 53.6 °F 53% 29.84 in 10.0 mi WSW 4.6 mph - N/A   Scattered Clouds
7:56 PM 70.7 °F 53.1 °F 54% 29.84 in 10.0 mi Calm Calm - N/A   Scattered Clouds
8:15 PM 69.4 °F 54.0 °F 58% 29.84 in 10.0 mi Calm Calm - N/A   Clear
8:16 PM 69.4 °F 54.1 °F 58% 29.84 in 10.0 mi West 3.5 mph - N/A   Clear
8:35 PM 67.6 °F 55.6 °F 65% 29.83 in 10.0 mi Calm Calm - N/A   Clear
8:36 PM 67.6 °F 55.6 °F 65% 29.83 in 10.0 mi Calm Calm - N/A   Clear
8:59 PM 67.1 °F 55.0 °F 65% 29.84 in 10.0 mi Calm Calm - N/A   Clear
9:17 PM 62.8 °F 57.0 °F 81% 29.84 in 10.0 mi Calm Calm - N/A   Clear
9:35 PM 62.2 °F 57.2 °F 84% 29.84 in 10.0 mi Calm Calm - N/A   Clear
9:36 PM 61.9 °F 57.2 °F 85% 29.84 in 10.0 mi Calm Calm - N/A   Clear
9:55 PM 63.0 °F 57.2 °F 81% 29.84 in 10.0 mi Calm Calm - N/A   Clear
9:56 PM 63.1 °F 57.2 °F 81% 29.84 in 10.0 mi Calm Calm - N/A   Clear
10:15 PM 64.2 °F 57.2 °F 78% 29.84 in 10.0 mi Calm Calm - N/A   Clear
10:38 PM 62.6 °F 57.7 °F 84% 29.84 in 10.0 mi Calm Calm - N/A   Clear
10:56 PM 60.6 °F 57.4 °F 89% 29.84 in 10.0 mi Calm Calm - N/A   Clear
11:15 PM 60.8 °F 57.6 °F 89% 29.84 in 10.0 mi Calm Calm - N/A   Clear
11:35 PM 60.1 °F 58.1 °F 93% 29.84 in 10.0 mi Calm Calm - N/A   Clear
11:59 PM 62.6 °F 58.1 °F 85% 29.85 in 10.0 mi Calm Calm - N/A   Clear